Regional Weather Roundup
Issued by NWS

Home | Current Version | Previous Version | Text Only | Print | Product List | Glossary Off
Versions: 1 2 3 4 5 6 7 8 9 10 11 12 13 14 15 16 17 18 19 20 21 22 23 24 25 26 27 28 29 30 31 32 33 34 35 36 37 38 39 40 41 42 43 44 45 46 47 48 49 50

713
ASUS45 KCYS 141410
RWRWY

WYOMING REGIONAL WEATHER ROUNDUP
NATIONAL WEATHER SERVICE CHEYENNE WY
700 AM MST THU DEC 14 2017

NOTE:  "FAIR" INDICATES FEW OR NO CLOUDS BELOW 12,000 FEET
WITH NO SIGNIFICANT WEATHER AND/OR OBSTRUCTIONS TO VISIBILITY.

WYZ001-141500-
YELLOWSTONE NATIONAL PARK

CITY           SKY/WX    TMP DP  RH WIND       PRES   REMARKS
LK YELLOWSTONE   N/A      1  -3  83 NW3       30.37R
W YELLOWSTONE  NOT AVBL

$$
WYZ002>013-054>058-071-098>099-141500-
NORTHERN WYOMING

CITY           SKY/WX    TMP DP  RH WIND       PRES   REMARKS
JACKSON        FAIR       8   5  87 NE7       30.37  WCI  -3
CODY           FAIR      21  15  78 W3        30.30S
GREYBULL       FAIR      26  20  77 W10       30.29R WCI  16
WORLAND        FAIR      23  19  85 W5        30.29R WCI  17
SHERIDAN       CLOUDY    34  22  61 NW21G30   30.29R WCI  22
BUFFALO        CLOUDY    32  17  54 N31G45    30.23R WCI  17
GILLETTE         N/A     31  21  66 MISG      30.22R
HULETT         CLOUDY    30  25  80 N14       30.19S WCI  20
NEWCASTLE      FLURRIES  30  23  74 NW25G35   30.16R WCI  16

$$
WYZ014>020-022>026-101>103-141500-
CENTRAL WYOMING

CITY           SKY/WX    TMP DP  RH WIND       PRES   REMARKS
BIG PINEY      FAIR       9   6  88 CALM      30.30R
PINEDALE       FOG       10   9  92 CALM      30.30R VSB 1/4
DUBOIS         FAIR      21  10  63 NW13      30.26R WCI   9
LANDER         FAIR      23  19  85 SW3       30.28R
RIVERTON       FAIR      19  17  92 NW12      30.29R WCI   7
CASPER         CLOUDY    27  22  81 W7        30.24R WCI  19
DOUGLAS        CLOUDY    31  22  69 N25G35    30.22R WCI  17

$$
WYZ021-027>030-104>119-141500-
SOUTHERN WYOMING

CITY           SKY/WX    TMP DP  RH WIND       PRES   REMARKS
EVANSTON       MOCLDY    22  20  92 N6        30.33R WCI  14
FORT BRIDGER   CLOUDY    24  24 100 W8        30.35R WCI  16
ROCK SPRINGS   CLOUDY    21  19  92 SW6       30.30R WCI  13
DIXON          FAIR      20  16  83 N3        30.30R
RAWLINS        FAIR      22  17  81 CALM      30.25R
SARATOGA       CLOUDY    21  21 100 W8        30.25R WCI  12
LARAMIE        CLOUDY    24  21  88 NW22      30.16S WCI   9
CHEYENNE       CLOUDY    29  23  78 NW13      30.15R WCI  19
TORRINGTON     CLOUDY    37  26  64 NW24G35   30.14S WCI  26
PINE BLUFFS    CLOUDY    32  23  69 MISG      30.16R

$$




USA.gov is the U.S. government's official web portal to all federal, state and local government web resources and services.